FW2536 Weather Reports


time (UTC)temp
F
wind
direction
speed
knots
gust
knots
rain 1hr
in
rain 24hr
in
rain mn
in
humidity
%
barometer
mb
20260509061518 46 360 0.0 1.7 0.02 0.11 0.02 59 1014.3
20260509060016 46 360 0.0 0.0 0.01 0.16 0.01 59 1014.2
20260509054518 46 360 0.0 1.7 0.01 0.16 0.01 59 1013.5
20260509053020 46 360 0.9 2.6 0.00 0.15 0.00 59 1013.3
20260509051512 46 360 0.0 0.9 0.00 0.15 0.00 59 1013.6
20260509050014 46 360 0.9 2.6 0.00 0.28 0.00 59 1013.5
20260509044510 46 360 0.9 3.5 0.00 0.28 0.00 59 1013.6
20260509043010 46 360 0.0 0.0 0.00 0.28 0.00 59 1013.8
20260509041510 45 360 0.0 0.0 0.00 0.28 0.00 60 1014.0
20260509040003 45 360 0.0 0.0 0.00 0.31 0.28 60 1014.0
20260509034503 45 360 0.0 0.0 0.00 0.31 0.28 61 1014.1
20260509033003 45 360 0.0 0.0 0.00 0.31 0.28 61 1013.9
20260509031502 45 360 0.0 0.0 0.00 0.31 0.28 61 1013.9
20260509030002 45 360 0.0 0.0 0.00 0.31 0.28 61 1013.8
20260509024501 46 360 0.0 0.0 0.00 0.31 0.28 61 1013.7
20260509023107 47 239 0.0 0.0 0.00 0.31 0.28 60 1014.1
20260509021600 47 238 0.0 0.0 0.00 0.31 0.28 60 1014.0
20260509021502 47 239 0.0 0.0 0.00 0.31 0.28 60 1014.0
20260509020059 48 239 0.0 0.0 0.00 0.31 0.28 60 1013.9
20260509014559 48 239 0.0 0.0 0.00 0.31 0.28 61 1013.8
20260509013112 48 239 0.0 0.0 0.00 0.31 0.28 60 1013.7
20260509011558 48 239 0.0 0.0 0.00 0.31 0.28 60 1013.4
20260509010057 48 239 0.0 0.0 0.00 0.31 0.28 60 1013.4
20260509004611 49 239 0.0 0.0 0.00 0.31 0.28 59 1013.1
20260509003056 49 239 0.0 0.0 0.00 0.31 0.28 59 1012.8
20260509001555 49 239 0.0 0.0 0.00 0.31 0.28 59 1013.1
20260509000055 49 239 0.0 0.0 0.00 0.31 0.28 59 1013.0
20260508234554 49 239 0.0 2.6 0.00 0.31 0.28 57 1012.9
20260508233109 50 239 0.0 0.0 0.00 0.31 0.28 55 1012.4
20260508231556 50 236 0.0 2.6 0.00 0.31 0.28 53 1012.4
20260508230057 51 238 0.9 2.6 0.00 0.31 0.28 52 1012.6
20260508224607 51 360 0.9 2.6 0.00 0.31 0.28 53 1012.5
20260508223051 51 230 0.0 2.6 0.00 0.31 0.28 55 1012.7
20260508221551 51 360 1.7 6.1 0.00 0.31 0.28 54 1012.8
20260508220049 51 360 1.7 4.3 0.00 0.31 0.28 53 1012.7
20260508214550 52 360 2.6 7.0 0.00 0.31 0.28 53 1012.7
20260508213051 52 360 1.7 5.2 0.00 0.31 0.28 51 1012.8
20260508211550 53 223 0.9 2.6 0.00 0.31 0.28 50 1012.6
20260508210047 53 223 0.0 1.7 0.00 0.31 0.28 48 1012.5
20260508204551 54 232 3.5 7.0 0.00 0.31 0.28 42 1012.5
20260508203053 55 15 0.0 5.2 0.00 0.31 0.28 43 1012.6
20260508201543 53 270 2.6 7.0 0.00 0.31 0.28 44 1012.8
20260508200050 53 13 0.0 4.3 0.00 0.31 0.28 46 1012.9
20260508194542 54 78 0.9 5.2 0.00 0.31 0.28 45 1012.9
20260508193043 53 234 0.9 3.5 0.00 0.31 0.28 46 1013.1
20260508191548 54 117 0.0 3.5 0.00 0.31 0.28 49 1013.2
20260508190036 52 239 0.0 3.5 0.00 0.31 0.28 52 1013.4
20260508184536 49 360 0.9 3.5 0.01 0.31 0.28 56 1013.8
20260508183035 50 360 0.0 7.0 0.01 0.31 0.28 55 1013.8
20260508181537 51 263 1.7 7.0 0.02 0.31 0.28 55 1014.2
20260508180032 48 360 1.7 7.0 0.04 0.31 0.28 56 1014.0
20260508174530 47 360 2.6 7.0 0.05 0.30 0.27 57 1014.1
20260508173029 45 360 1.7 5.2 0.08 0.30 0.27 61 1014.0
20260508171529 45 360 2.6 7.8 0.07 0.28 0.26 61 1014.2
20260508170029 44 360 0.9 8.7 0.05 0.27 0.24 60 1013.9
20260508164526 47 360 2.6 7.0 0.03 0.25 0.22 55 1014.0
20260508163027 48 360 0.0 2.6 0.00 0.22 0.19 52 1013.5
20260508161522 49 360 2.6 4.3 0.00 0.22 0.19 49 1013.3
20260508160019 48 360 0.9 5.2 0.00 0.22 0.19 51 1013.5
20260508154617 48 360 1.7 7.8 0.00 0.22 0.19 48 1013.6
20260508153017 47 360 2.6 9.6 0.00 0.22 0.19 50 1013.6
20260508151518 48 360 2.6 7.8 0.00 0.22 0.19 52 1013.8
20260508150021 47 224 3.5 9.6 0.00 0.22 0.19 55 1013.7
20260508144514 47 360 2.6 8.7 0.00 0.22 0.19 54 1013.7
20260508143012 49 360 2.6 4.3 0.00 0.22 0.19 55 1013.8
20260508141516 45 360 1.7 5.2 0.00 0.22 0.19 58 1014.0
20260508140018 44 360 1.7 5.2 0.00 0.22 0.19 62 1014.2
20260508134509 44 360 0.9 3.5 0.00 0.22 0.19 63 1014.3
20260508133008 44 360 2.6 6.1 0.00 0.22 0.19 66 1014.2
20260508131506 43 360 0.0 4.3 0.00 0.22 0.19 66 1014.0
20260508130006 43 360 0.9 3.5 0.00 0.22 0.19 66 1014.1
20260508124504 42 360 0.9 4.3 0.00 0.22 0.19 66 1014.2
20260508123004 42 360 0.9 3.5 0.00 0.22 0.19 66 1014.2
20260508121501 41 360 0.9 2.6 0.00 0.22 0.19 66 1014.1
20260508120101 40 360 0.9 2.6 0.00 0.22 0.19 65 1014.0
20260508114558 40 360 0.0 1.7 0.00 0.22 0.19 65 1014.1
20260508113105 39 360 0.9 2.6 0.00 0.22 0.19 65 1014.1
20260508111602 38 360 0.0 2.6 0.00 0.22 0.19 65 1014.0
20260508110052 38 360 0.0 1.7 0.00 0.22 0.19 64 1014.0
20260508104558 37 360 0.0 1.7 0.00 0.22 0.19 64 1013.9
20260508103050 37 360 0.0 0.0 0.00 0.22 0.19 63 1013.5
20260508101548 37 360 0.0 1.7 0.00 0.22 0.19 63 1013.6
20260508100044 38 360 0.0 2.6 0.00 0.22 0.19 63 1013.5
20260508094547 38 360 0.9 4.3 0.00 0.22 0.19 63 1013.5
20260508093050 36 360 0.0 0.9 0.00 0.22 0.19 59 1013.6
20260508091553 36 360 0.0 0.0 0.00 0.22 0.19 59 1013.4
20260508090052 37 360 0.0 0.0 0.00 0.22 0.19 59 1013.2
20260508084538 37 360 0.0 1.7 0.00 0.22 0.19 59 1013.2
20260508083036 36 360 0.0 0.9 0.00 0.22 0.19 58 1013.0
20260508081540 37 360 0.0 0.0 0.00 0.22 0.19 58 1012.9
20260508080042 37 360 0.0 0.9 0.00 0.22 0.19 57 1013.1
20260508074532 38 360 0.0 0.9 0.00 0.22 0.19 57 1013.0
20260508073038 38 360 0.0 0.9 0.00 0.22 0.19 57 1012.8
20260508071531 38 360 0.0 0.9 0.00 0.22 0.19 57 1012.9
20260508070040 39 360 0.0 0.9 0.00 0.22 0.19 57 1012.9
20260508064532 39 360 0.0 0.0 0.00 0.22 0.19 57 1012.9
20260508063024 40 360 0.0 0.0 0.01 0.22 0.19 57 1012.8